Weather in Yelizavetino

Russia / Saratov Oblast     51°50′02″N   44°49′59″E
temp.,
°C
wind,
m/s
gust,
m/s
humid.,
%
clouds,
%
prec.,
mm/h
press.,
hPa
HPBL,
m
11 may, tue
tue1101:00+13ene51486100 0.1 1012634
04:00+9se41095100 3.2 1015556
07:00+8se478899 2.2 1019698
10:00+10ese686421 2.3 10211331
13:00+14se895328 0.0 10231787
16:00+14se695265 0.0 10251883
19:00+13sse356320 0.0 1025419
22:00+9e117271 0.0 102610
12 may, wed
wed1201:00+8nne347860 0.0 102552
04:00+8ne4108856 0.1 1024258
07:00+9nne3793100 0.2 1023272
10:00+10n2598100 3.5 1022283
13:00+14ese498997 0.4 1020734
16:00+16se478497 1.3 1021670
19:00+17se378218 0.5 1021599
22:00+13ese119153 0.6 102111
13 may, thu
thu1301:00+12ene349373 0.0 102067
04:00+14e51287100 0.0 1019362
07:00+13e61286100 0.6 1018392
10:00+14ese61286100 0.6 1019459
13:00+21se796883 0.0 10181270
16:00+20sse5974100 1.0 1018507
19:00+21sse36735 0.7 1018188
22:00+17e228463 0.7 101813
14 may, fri
fri1401:00+15ese228423 0.0 101815
04:00+14se22865 0.0 101912
07:00+16ese248452 0.0 1019108
10:00+22se586215 0.0 1019538
13:00+24sse684799 0.0 10191009
16:00+26sse69485 0.0 10181200
19:00+23se410600 0.0 1018295
22:00+18se414635 0.0 1018228
15 may, sat
sat1501:00+17se514565 0.0 1018242
04:00+15se413585 0.0 1018197
07:00+16se514595 0.0 1018265
10:00+22se7144850 0.0 1017616
13:00+25sse812415 0.0 1017994
16:00+27sse7124321 0.0 10161953
19:00+24sse49565 0.0 1015201
22:00+19se51459100 0.0 1014240